APPOWX Weather Reports


time (UTC)temp
C
wind
direction
speed
KPH
gust
KPH
rain 1hr
cm
rain 24hr
cm
rain mn
cm
humidity
%
barometer
mb
20260504120247 9 0 0.0 0.0 0.00 0.00 0.00 73 1018.4
20260504120147 9 0 0.0 0.0 0.00 0.00 0.00 73 1018.5
20260504110645 8 0 0.0 0.0 0.00 0.00 0.00 69 1018.5
20260504110544 8 0 0.0 0.0 0.00 0.00 0.00 69 1018.7
20260504110445 8 0 0.0 0.0 0.00 0.00 0.00 69 1018.7
20260504110344 8 0 0.0 0.0 0.00 0.00 0.00 69 1018.5
20260504110244 8 0 0.0 0.0 0.00 0.00 0.00 69 1018.6
20260504110145 8 0 0.0 0.0 0.00 0.00 0.00 69 1018.6
20260504100541 8 0 0.0 0.0 0.00 0.00 0.00 71 1018.4
20260504100442 8 0 0.0 0.0 0.00 0.00 0.00 71 1018.2
20260504100341 8 0 0.0 0.0 0.00 0.00 0.00 71 1018.3
20260504100242 8 0 0.0 0.0 0.00 0.00 0.00 70 1018.3
20260504100142 8 0 0.0 0.0 0.00 0.00 0.00 69 1018.5
20260504090139 9 0 0.0 0.0 0.00 0.00 0.00 64 1018.4
20260504081937 9 0 0.0 0.0 0.00 0.00 0.00 61 1018.5
20260504081837 9 0 0.0 0.0 0.00 0.00 0.00 61 1018.4
20260504081737 9 0 0.0 0.0 0.00 0.00 0.00 63 1018.5
20260504081637 9 0 0.0 0.0 0.00 0.00 0.00 61 1018.4
20260504081537 9 0 0.0 0.0 0.00 0.00 0.00 60 1018.4
20260504081437 9 0 0.0 0.0 0.00 0.00 0.00 60 1018.3
20260504081337 9 0 0.0 0.0 0.00 0.00 0.00 61 1018.3
20260504081237 9 0 0.0 0.0 0.00 0.00 0.00 61 1018.2
20260504081137 9 0 0.0 0.0 0.00 0.00 0.00 64 1018.4
20260504081037 9 0 0.0 0.0 0.00 0.00 0.00 62 1018.4
20260504080937 9 0 0.0 0.0 0.00 0.00 0.00 63 1018.2
20260504080837 9 0 0.0 0.0 0.00 0.00 0.00 62 1018.3
20260504080737 9 0 0.0 0.0 0.00 0.00 0.00 63 1018.3
20260504080637 9 0 0.0 0.0 0.00 0.00 0.00 62 1018.3
20260504080537 9 0 0.0 0.0 0.00 0.00 0.00 64 1018.3
20260504080436 9 0 0.0 0.0 0.00 0.00 0.00 62 1018.3
20260504080337 9 0 0.0 0.0 0.00 0.00 0.00 65 1018.2
20260504080236 9 0 0.0 0.0 0.00 0.00 0.00 64 1018.4
20260504080137 9 0 0.0 0.0 0.00 0.00 0.00 63 1018.3
20260504070335 9 0 0.0 0.0 0.00 0.00 0.00 60 1018.6
20260504070235 9 0 0.0 0.0 0.00 0.00 0.00 61 1018.5
20260504070135 9 0 0.0 0.0 0.00 0.00 0.00 61 1018.4
20260504060231 10 0 0.0 0.0 0.00 0.00 0.00 60 1018.8
20260504060131 10 0 0.0 0.0 0.00 0.00 0.00 58 1018.8
20260504050729 10 0 0.0 0.0 0.00 0.00 0.00 61 1018.6
20260504050629 10 0 0.0 0.0 0.00 0.00 0.00 60 1018.5
20260504050529 10 0 0.0 0.0 0.00 0.00 0.00 62 1018.4
20260504050430 10 0 0.0 0.0 0.00 0.00 0.00 62 1018.6
20260504050329 10 0 0.0 0.0 0.00 0.00 0.00 63 1018.6
20260504050229 10 0 0.0 0.0 0.00 0.00 0.00 63 1018.4
20260504050129 10 0 0.0 0.0 0.00 0.00 0.00 62 1018.6
20260504045929 10 0 0.0 0.0 0.00 0.00 0.00 62 1018.6
20260504045829 10 0 0.0 0.0 0.00 0.00 0.00 63 1018.6
20260504045728 10 0 0.0 0.0 0.00 0.00 0.00 63 1018.7
20260504045629 10 0 0.0 0.0 0.00 0.00 0.00 63 1018.6
20260504045529 10 0 0.0 0.0 0.00 0.00 0.00 64 1018.5
20260504045429 10 0 0.0 0.0 0.00 0.00 0.00 63 1018.4
20260504045329 10 0 0.0 0.0 0.00 0.00 0.00 63 1018.6
20260504045228 10 0 0.0 0.0 0.00 0.00 0.00 64 1018.5
20260504045129 10 0 0.0 0.0 0.00 0.00 0.00 63 1018.5
20260504045028 10 0 0.0 0.0 0.00 0.00 0.00 63 1018.6
20260504044928 10 0 0.0 0.0 0.00 0.00 0.00 62 1018.6
20260504044829 10 0 0.0 0.0 0.00 0.00 0.00 62 1018.6
20260504044728 10 0 0.0 0.0 0.00 0.00 0.00 62 1018.4
20260504044629 10 0 0.0 0.0 0.00 0.00 0.00 56 1018.6
20260504044528 10 0 0.0 0.0 0.00 0.00 0.00 57 1018.5
20260504044428 10 0 0.0 0.0 0.00 0.00 0.00 55 1018.4
20260504044329 10 0 0.0 0.0 0.00 0.00 0.00 55 1018.6
20260504044228 10 0 0.0 0.0 0.00 0.00 0.00 54 1018.6
20260504044129 10 0 0.0 0.0 0.00 0.00 0.00 53 1018.5
20260504044028 10 0 0.0 0.0 0.00 0.00 0.00 56 1018.5
20260504043928 10 0 0.0 0.0 0.00 0.00 0.00 56 1018.5
20260504043828 10 0 0.0 0.0 0.00 0.00 0.00 55 1018.6
20260504043728 10 0 0.0 0.0 0.00 0.00 0.00 55 1018.6
20260504043629 10 0 0.0 0.0 0.00 0.00 0.00 54 1018.5
20260504043528 10 0 0.0 0.0 0.00 0.00 0.00 54 1018.4
20260504043428 10 0 0.0 0.0 0.00 0.00 0.00 54 1018.6
20260504043328 10 0 0.0 0.0 0.00 0.00 0.00 55 1018.7
20260504043228 10 0 0.0 0.0 0.00 0.00 0.00 55 1018.6
20260504043127 10 0 0.0 0.0 0.00 0.00 0.00 53 1018.5
20260504043028 10 0 0.0 0.0 0.00 0.00 0.00 54 1018.5
20260504042928 10 0 0.0 0.0 0.00 0.00 0.00 53 1018.5
20260504042827 10 0 0.0 0.0 0.00 0.00 0.00 56 1018.6
20260504042728 10 0 0.0 0.0 0.00 0.00 0.00 55 1018.7
20260504042627 10 0 0.0 0.0 0.00 0.00 0.00 54 1018.7
20260504042527 10 0 0.0 0.0 0.00 0.00 0.00 54 1018.5
20260504042428 10 0 0.0 0.0 0.00 0.00 0.00 55 1018.5
20260504042327 10 0 0.0 0.0 0.00 0.00 0.00 54 1018.6
20260504042227 10 0 0.0 0.0 0.00 0.00 0.00 54 1018.6
20260504042127 10 0 0.0 0.0 0.00 0.00 0.00 54 1018.5
20260504042027 10 0 0.0 0.0 0.00 0.00 0.00 55 1018.6
20260504041928 10 0 0.0 0.0 0.00 0.00 0.00 54 1018.6
20260504041827 9 0 0.0 0.0 0.00 0.00 0.00 55 1018.5
20260504041727 9 0 0.0 0.0 0.00 0.00 0.00 55 1018.4
20260504041627 9 0 0.0 0.0 0.00 0.00 0.00 56 1018.5
20260504041527 9 0 0.0 0.0 0.00 0.00 0.00 56 1018.4
20260504041427 9 0 0.0 0.0 0.00 0.00 0.00 54 1018.4
20260504041327 9 0 0.0 0.0 0.00 0.00 0.00 56 1018.5
20260504041227 9 0 0.0 0.0 0.00 0.00 0.00 55 1018.4
20260504041127 9 0 0.0 0.0 0.00 0.00 0.00 56 1018.5
20260504041027 9 0 0.0 0.0 0.00 0.00 0.00 56 1018.6
20260504040926 9 0 0.0 0.0 0.00 0.00 0.00 54 1018.5
20260504040827 9 0 0.0 0.0 0.00 0.00 0.00 55 1018.7
20260504040727 9 0 0.0 0.0 0.00 0.00 0.00 55 1018.5
20260504040626 9 0 0.0 0.0 0.00 0.00 0.00 56 1018.5
20260504040527 9 0 0.0 0.0 0.00 0.00 0.00 56 1018.5
20260504040426 10 0 0.0 0.0 0.00 0.00 0.00 55 1018.5
20260504040327 10 0 0.0 0.0 0.00 0.00 0.00 55 1018.5
20260504040226 10 0 0.0 0.0 0.00 0.00 0.00 54 1018.5
20260504040126 9 0 0.0 0.0 0.00 0.00 0.00 54 1018.5
20260504040027 9 0 0.0 0.0 0.00 0.00 0.00 55 1018.5
20260504035926 9 0 0.0 0.0 0.00 0.00 0.00 56 1018.5
20260504035826 9 0 0.0 0.0 0.00 0.00 0.00 56 1018.5
20260504035727 9 0 0.0 0.0 0.00 0.00 0.00 56 1018.6
20260504035626 9 0 0.0 0.0 0.00 0.00 0.00 56 1018.4
20260504035526 9 0 0.0 0.0 0.00 0.00 0.00 56 1018.4
20260504035426 9 0 0.0 0.0 0.00 0.00 0.00 56 1018.6
20260504035326 9 0 0.0 0.0 0.00 0.00 0.00 58 1018.5
20260504035226 9 0 0.0 0.0 0.00 0.00 0.00 58 1018.6
20260504035126 9 0 0.0 0.0 0.00 0.00 0.00 57 1018.6
20260504035026 9 0 0.0 0.0 0.00 0.00 0.00 56 1018.5
20260504034926 9 0 0.0 0.0 0.00 0.00 0.00 57 1018.4
20260504034826 9 0 0.0 0.0 0.00 0.00 0.00 59 1018.6
20260504034726 9 0 0.0 0.0 0.00 0.00 0.00 60 1018.7
20260504034626 9 0 0.0 0.0 0.00 0.00 0.00 60 1018.7
20260504034526 9 0 0.0 0.0 0.00 0.00 0.00 59 1018.6
20260504034425 9 0 0.0 0.0 0.00 0.00 0.00 60 1018.6
20260504034326 9 0 0.0 0.0 0.00 0.00 0.00 60 1018.7
20260504034226 9 0 0.0 0.0 0.00 0.00 0.00 60 1018.5
20260504034125 10 0 0.0 0.0 0.00 0.00 0.00 59 1018.7
20260504034026 10 0 0.0 0.0 0.00 0.00 0.00 59 1018.7
20260504033926 10 0 0.0 0.0 0.00 0.00 0.00 58 1018.7
20260504033825 10 0 0.0 0.0 0.00 0.00 0.00 58 1018.7
20260504033725 10 0 0.0 0.0 0.00 0.00 0.00 60 1018.8
20260504033626 10 0 0.0 0.0 0.00 0.00 0.00 58 1018.7
20260504033525 10 0 0.0 0.0 0.00 0.00 0.00 58 1018.6
20260504033425 10 0 0.0 0.0 0.00 0.00 0.00 56 1018.6
20260504033325 10 0 0.0 0.0 0.00 0.00 0.00 52 1018.5
20260504033225 10 0 0.0 0.0 0.00 0.00 0.00 53 1018.5
20260504033125 10 0 0.0 0.0 0.00 0.00 0.00 54 1018.4
20260504033025 10 0 0.0 0.0 0.00 0.00 0.00 53 1018.4
20260504032925 10 0 0.0 0.0 0.00 0.00 0.00 54 1018.4
20260504032825 10 0 0.0 0.0 0.00 0.00 0.00 54 1018.5
20260504032725 10 0 0.0 0.0 0.00 0.00 0.00 53 1018.4
20260504032625 10 0 0.0 0.0 0.00 0.00 0.00 53 1018.5
20260504032525 10 0 0.0 0.0 0.00 0.00 0.00 53 1018.5
20260504032425 10 0 0.0 0.0 0.00 0.00 0.00 53 1018.6
20260504032324 10 0 0.0 0.0 0.00 0.00 0.00 54 1018.6
20260504032225 10 0 0.0 0.0 0.00 0.00 0.00 55 1018.7
20260504032124 10 0 0.0 0.0 0.00 0.00 0.00 55 1018.5
20260504032025 10 0 0.0 0.0 0.00 0.00 0.00 59 1018.5
20260504031925 10 0 0.0 0.0 0.00 0.00 0.00 58 1018.5
20260504031824 10 0 0.0 0.0 0.00 0.00 0.00 58 1018.6
20260504031725 10 0 0.0 0.0 0.00 0.00 0.00 54 1018.6
20260504031624 10 0 0.0 0.0 0.00 0.00 0.00 54 1018.5
20260504031525 10 0 0.0 0.0 0.00 0.00 0.00 51 1018.5
20260504031424 10 0 0.0 0.0 0.00 0.00 0.00 51 1018.4
20260504031325 10 0 0.0 0.0 0.00 0.00 0.00 52 1018.6
20260504031224 10 0 0.0 0.0 0.00 0.00 0.00 51 1018.5
20260504031124 10 0 0.0 0.0 0.00 0.00 0.00 51 1018.4
20260504031024 10 0 0.0 0.0 0.00 0.00 0.00 51 1018.7
20260504030924 10 0 0.0 0.0 0.00 0.00 0.00 52 1018.6
20260504030824 10 0 0.0 0.0 0.00 0.00 0.00 51 1018.6
20260504030724 10 0 0.0 0.0 0.00 0.00 0.00 53 1018.7
20260504030624 10 0 0.0 0.0 0.00 0.00 0.00 53 1018.5
20260504030524 10 0 0.0 0.0 0.00 0.00 0.00 53 1018.7
20260504030424 10 0 0.0 0.0 0.00 0.00 0.00 52 1018.8
20260504030323 10 0 0.0 0.0 0.00 0.00 0.00 52 1018.8
20260504030224 10 0 0.0 0.0 0.00 0.00 0.00 51 1018.5
20260504030123 10 0 0.0 0.0 0.00 0.00 0.00 52 1018.7
20260504030024 10 0 0.0 0.0 0.00 0.00 0.00 52 1018.6
20260504025924 10 0 0.0 0.0 0.00 0.00 0.00 52 1018.6
20260504025823 10 0 0.0 0.0 0.00 0.00 0.00 51 1018.5
20260504025724 10 0 0.0 0.0 0.00 0.00 0.00 52 1018.6
20260504025623 10 0 0.0 0.0 0.00 0.00 0.00 52 1018.6
20260504025523 10 0 0.0 0.0 0.00 0.00 0.00 54 1018.8
20260504025424 10 0 0.0 0.0 0.00 0.00 0.00 58 1018.5
20260504025323 10 0 0.0 0.0 0.00 0.00 0.00 58 1018.7
20260504025223 10 0 0.0 0.0 0.00 0.00 0.00 58 1018.6
20260504025123 10 0 0.0 0.0 0.00 0.00 0.00 56 1018.7
20260504025023 10 0 0.0 0.0 0.00 0.00 0.00 52 1018.6
20260504024923 10 0 0.0 0.0 0.00 0.00 0.00 52 1018.6
20260504024823 10 0 0.0 0.0 0.00 0.00 0.00 53 1018.6
20260504024723 10 0 0.0 0.0 0.00 0.00 0.00 52 1018.8
20260504024623 10 0 0.0 0.0 0.00 0.00 0.00 53 1018.6
20260504024523 10 0 0.0 0.0 0.00 0.00 0.00 54 1018.6
20260504024422 10 0 0.0 0.0 0.00 0.00 0.00 54 1018.6
20260504024323 10 0 0.0 0.0 0.00 0.00 0.00 56 1018.6
20260504024223 10 0 0.0 0.0 0.00 0.00 0.00 57 1018.7
20260504024123 10 0 0.0 0.0 0.00 0.00 0.00 57 1018.6
20260504024023 10 0 0.0 0.0 0.00 0.00 0.00 56 1018.7
20260504023922 10 0 0.0 0.0 0.00 0.00 0.00 56 1018.7
20260504023823 10 0 0.0 0.0 0.00 0.00 0.00 56 1018.7
20260504023722 10 0 0.0 0.0 0.00 0.00 0.00 56 1018.7
20260504023623 10 0 0.0 0.0 0.00 0.00 0.00 56 1018.6
20260504023523 10 0 0.0 0.0 0.00 0.00 0.00 55 1018.6
20260504023422 10 0 0.0 0.0 0.00 0.00 0.00 54 1018.7
20260504023323 10 0 0.0 0.0 0.00 0.00 0.00 54 1018.6
20260504023222 10 0 0.0 0.0 0.00 0.00 0.00 54 1018.7
20260504023123 10 0 0.0 0.0 0.00 0.00 0.00 53 1018.8
20260504023022 10 0 0.0 0.0 0.00 0.00 0.00 54 1018.7
20260504022923 10 0 0.0 0.0 0.00 0.00 0.00 54 1018.7
20260504022822 10 0 0.0 0.0 0.00 0.00 0.00 55 1018.7
20260504022719 10 0 0.0 0.0 0.00 0.00 0.00 56 1018.6
20260504022614 10 0 0.0 0.0 0.00 0.00 0.00 59 1018.6
20260504022513 10 0 0.0 0.0 0.00 0.00 0.00 58 1018.7
20260504022414 10 0 0.0 0.0 0.00 0.00 0.00 57 1018.5
20260504022309 10 0 0.0 0.0 0.00 0.00 0.00 54 1018.5
20260504022206 10 0 0.0 0.0 0.00 0.00 0.00 56 1018.4
20260504022106 10 0 0.0 0.0 0.00 0.00 0.00 57 1018.6
20260504022006 10 0 0.0 0.0 0.00 0.00 0.00 55 1018.5
20260504021905 10 0 0.0 0.0 0.00 0.00 0.00 57 1018.6
20260504021806 10 0 0.0 0.0 0.00 0.00 0.00 55 1018.2
20260504021705 10 0 0.0 0.0 0.00 0.00 0.00 56 1018.5
20260504021606 10 0 0.0 0.0 0.00 0.00 0.00 54 1018.5
20260504021505 10 0 0.0 0.0 0.00 0.00 0.00 56 1018.5
20260504021405 10 0 0.0 0.0 0.00 0.00 0.00 56 1018.4
20260504021306 10 0 0.0 0.0 0.00 0.00 0.00 58 1018.4
20260504021205 10 0 0.0 0.0 0.00 0.00 0.00 55 1018.3
20260504021105 10 0 0.0 0.0 0.00 0.00 0.00 55 1018.5
20260504021005 10 0 0.0 0.0 0.00 0.00 0.00 54 1018.5
20260504020905 10 0 0.0 0.0 0.00 0.00 0.00 53 1018.2
20260504020806 10 0 0.0 0.0 0.00 0.00 0.00 55 1018.3
20260504020705 10 0 0.0 0.0 0.00 0.00 0.00 54 1018.4
20260504020605 10 0 0.0 0.0 0.00 0.00 0.00 54 1018.4
20260504020505 10 0 0.0 0.0 0.00 0.00 0.00 55 1018.4
20260504020405 10 0 0.0 0.0 0.00 0.00 0.00 55 1018.3
20260504020305 10 0 0.0 0.0 0.00 0.00 0.00 55 1018.4
20260504020205 10 0 0.0 0.0 0.00 0.00 0.00 55 1018.1
20260504020104 10 0 0.0 0.0 0.00 0.00 0.00 55 1018.2
20260504020005 10 0 0.0 0.0 0.00 0.00 0.00 55 1018.2
20260504015905 10 0 0.0 0.0 0.00 0.00 0.00 54 1018.1
20260504015804 10 0 0.0 0.0 0.00 0.00 0.00 56 1018.2
20260504015705 10 0 0.0 0.0 0.00 0.00 0.00 55 1018.2
20260504015604 10 0 0.0 0.0 0.00 0.00 0.00 55 1018.4
20260504015505 10 0 0.0 0.0 0.00 0.00 0.00 58 1018.0
20260504015404 10 0 0.0 0.0 0.00 0.00 0.00 59 1018.1
20260504015305 10 0 0.0 0.0 0.00 0.00 0.00 59 1018.2
20260504015205 10 0 0.0 0.0 0.00 0.00 0.00 56 1018.1
20260504015104 10 0 0.0 0.0 0.00 0.00 0.00 55 1018.1
20260504015005 10 0 0.0 0.0 0.00 0.00 0.00 54 1018.1
20260504014904 10 0 0.0 0.0 0.00 0.00 0.00 54 1018.0
20260504014805 10 0 0.0 0.0 0.00 0.00 0.00 54 1018.1
20260504014704 10 0 0.0 0.0 0.00 0.00 0.00 54 1018.0
20260504014604 10 0 0.0 0.0 0.00 0.00 0.00 55 1018.1
20260504014505 10 0 0.0 0.0 0.00 0.00 0.00 57 1018.2
20260504014404 10 0 0.0 0.0 0.00 0.00 0.00 58 1018.0
20260504014304 10 0 0.0 0.0 0.00 0.00 0.00 58 1018.0
20260504014204 10 0 0.0 0.0 0.00 0.00 0.00 59 1018.0
20260504014104 10 0 0.0 0.0 0.00 0.00 0.00 58 1017.9
20260504014004 10 0 0.0 0.0 0.00 0.00 0.00 58 1018.2
20260504013904 10 0 0.0 0.0 0.00 0.00 0.00 58 1018.3
20260504013804 10 0 0.0 0.0 0.00 0.00 0.00 59 1018.0
20260504013704 10 0 0.0 0.0 0.00 0.00 0.00 58 1017.9
20260504013604 10 0 0.0 0.0 0.00 0.00 0.00 57 1017.8
20260504013504 10 0 0.0 0.0 0.00 0.00 0.00 58 1018.0
20260504013403 10 0 0.0 0.0 0.00 0.00 0.00 58 1017.9
20260504013304 10 0 0.0 0.0 0.00 0.00 0.00 58 1017.9
20260504013204 10 0 0.0 0.0 0.00 0.00 0.00 57 1018.0
20260504013103 10 0 0.0 0.0 0.00 0.00 0.00 57 1018.0
20260504013004 10 0 0.0 0.0 0.00 0.00 0.00 57 1018.1
20260504012903 10 0 0.0 0.0 0.00 0.00 0.00 56 1017.9
20260504012803 10 0 0.0 0.0 0.00 0.00 0.00 56 1018.0
20260504012704 10 0 0.0 0.0 0.00 0.00 0.00 56 1018.0
20260504012603 10 0 0.0 0.0 0.00 0.00 0.00 57 1017.8
20260504012503 10 0 0.0 0.0 0.00 0.00 0.00 57 1017.9
20260504012404 10 0 0.0 0.0 0.00 0.00 0.00 56 1018.0
20260504012304 10 0 0.0 0.0 0.00 0.00 0.00 56 1017.9
20260504012203 10 0 0.0 0.0 0.00 0.00 0.00 56 1017.8
20260504012103 10 0 0.0 0.0 0.00 0.00 0.00 56 1017.9
20260504012003 10 0 0.0 0.0 0.00 0.00 0.00 56 1017.8
20260504011903 10 0 0.0 0.0 0.00 0.00 0.00 55 1017.8
20260504011803 10 0 0.0 0.0 0.00 0.00 0.00 57 1017.7
20260504011703 10 0 0.0 0.0 0.00 0.00 0.00 56 1017.7
20260504011603 10 0 0.0 0.0 0.00 0.00 0.00 56 1017.6
20260504011503 10 0 0.0 0.0 0.00 0.00 0.00 54 1017.7
20260504011403 10 0 0.0 0.0 0.00 0.00 0.00 54 1017.9
20260504011303 10 0 0.0 0.0 0.00 0.00 0.00 55 1017.6
20260504011202 10 0 0.0 0.0 0.00 0.00 0.00 54 1017.7
20260504011103 10 0 0.0 0.0 0.00 0.00 0.00 54 1017.9
20260504011003 11 0 0.0 0.0 0.00 0.00 0.00 54 1017.8
20260504010902 11 0 0.0 0.0 0.00 0.00 0.00 55 1017.8
20260504010803 11 0 0.0 0.0 0.00 0.00 0.00 54 1017.8
20260504010702 11 0 0.0 0.0 0.00 0.00 0.00 53 1017.7
20260504010603 11 0 0.0 0.0 0.00 0.00 0.00 53 1017.8
20260504010503 11 0 0.0 0.0 0.00 0.00 0.00 52 1017.8
20260504010402 11 0 0.0 0.0 0.00 0.00 0.00 51 1017.6
20260504010303 11 0 0.0 0.0 0.00 0.00 0.00 51 1017.7
20260504010203 11 0 0.0 0.0 0.00 0.00 0.00 51 1017.8
20260504010003 11 0 0.0 0.0 0.00 0.00 0.00 49 1017.7
20260504005902 11 0 0.0 0.0 0.00 0.00 0.00 50 1017.6
20260504005802 11 0 0.0 0.0 0.00 0.00 0.00 51 1017.7
20260504005703 11 0 0.0 0.0 0.00 0.00 0.00 52 1017.7
20260504005602 11 0 0.0 0.0 0.00 0.00 0.00 53 1017.7
20260504005503 11 0 0.0 0.0 0.00 0.00 0.00 52 1017.8
20260504005402 11 0 0.0 0.0 0.00 0.00 0.00 51 1017.8
20260504005304 11 0 0.0 0.0 0.00 0.00 0.00 51 1017.7
20260504005203 11 0 0.0 0.0 0.00 0.00 0.00 52 1017.6
20260504005102 11 0 0.0 0.0 0.00 0.00 0.00 52 1017.6
20260504005002 11 0 0.0 0.0 0.00 0.00 0.00 52 1017.7
20260504004903 11 0 0.0 0.0 0.00 0.00 0.00 53 1017.9
20260504004802 11 0 0.0 0.0 0.00 0.00 0.00 52 1017.8
20260504004702 11 0 0.0 0.0 0.00 0.00 0.00 50 1017.7
20260504004602 11 0 0.0 0.0 0.00 0.00 0.00 50 1017.7
20260504004502 11 0 0.0 0.0 0.00 0.00 0.00 52 1017.7
20260504004402 11 0 0.0 0.0 0.00 0.00 0.00 53 1017.6
20260504004302 11 0 0.0 0.0 0.00 0.00 0.00 50 1017.8
20260504004202 11 0 0.0 0.0 0.00 0.00 0.00 51 1017.9
20260504004102 11 0 0.0 0.0 0.00 0.00 0.00 52 1017.7
20260504004001 11 0 0.0 0.0 0.00 0.00 0.00 51 1017.8
20260504003902 11 0 0.0 0.0 0.00 0.00 0.00 52 1017.6
20260504003802 11 0 0.0 0.0 0.00 0.00 0.00 50 1017.7
20260504003702 11 0 0.0 0.0 0.00 0.00 0.00 49 1017.8
20260504003602 11 0 0.0 0.0 0.00 0.00 0.00 49 1017.7
20260504003501 11 0 0.0 0.0 0.00 0.00 0.00 49 1017.8
20260504003402 11 0 0.0 0.0 0.00 0.00 0.00 48 1017.8
20260504003301 11 0 0.0 0.0 0.00 0.00 0.00 48 1017.6
20260504003202 12 0 0.0 0.0 0.00 0.00 0.00 47 1017.7
20260504003102 12 0 0.0 0.0 0.00 0.00 0.00 47 1017.8
20260504003001 12 0 0.0 0.0 0.00 0.00 0.00 47 1017.6
20260504002902 12 0 0.0 0.0 0.00 0.00 0.00 46 1017.8
20260504002801 12 0 0.0 0.0 0.00 0.00 0.00 46 1017.8
20260504002702 12 0 0.0 0.0 0.00 0.00 0.00 45 1017.7
20260504002601 12 0 0.0 0.0 0.00 0.00 0.00 46 1017.8
20260504002502 12 0 0.0 0.0 0.00 0.00 0.00 46 1017.7
20260504002401 12 0 0.0 0.0 0.00 0.00 0.00 46 1017.8
20260504002303 12 0 0.0 0.0 0.00 0.00 0.00 47 1017.8
20260504002201 12 0 0.0 0.0 0.00 0.00 0.00 47 1017.9
20260504002101 12 0 0.0 0.0 0.00 0.00 0.00 47 1017.9
20260504002001 12 0 0.0 0.0 0.00 0.00 0.00 48 1017.9
20260504001901 12 0 0.0 0.0 0.00 0.00 0.00 47 1017.8
20260504001802 12 0 0.0 0.0 0.00 0.00 0.00 48 1017.9
20260504001701 12 0 0.0 0.0 0.00 0.00 0.00 48 1017.8
20260504001601 12 0 0.0 0.0 0.00 0.00 0.00 48 1017.8
20260504001501 12 0 0.0 0.0 0.00 0.00 0.00 48 1017.7
20260504001401 12 0 0.0 0.0 0.00 0.00 0.00 47 1017.7
20260504001302 12 0 0.0 0.0 0.00 0.00 0.00 47 1017.8
20260504001201 12 0 0.0 0.0 0.00 0.00 0.00 47 1017.7
20260504001101 12 0 0.0 0.0 0.00 0.00 0.00 47 1017.8
20260504001001 12 0 0.0 0.0 0.00 0.00 0.00 47 1017.8
20260504000901 12 0 0.0 0.0 0.00 0.00 0.00 46 1017.7
20260504000801 12 0 0.0 0.0 0.00 0.00 0.00 45 1017.8
20260504000701 12 0 0.0 0.0 0.00 0.00 0.00 44 1017.6
20260504000601 12 0 0.0 0.0 0.00 0.00 0.00 44 1017.8
20260504000500 12 0 0.0 0.0 0.00 0.00 0.00 45 1017.9
20260504000401 13 0 0.0 0.0 0.00 0.00 0.00 44 1017.7
20260504000300 13 0 0.0 0.0 0.00 0.00 0.00 45 1017.7
20260504000200 13 0 0.0 0.0 0.00 0.00 0.00 46 1017.8
20260504000101 13 0 0.0 0.0 0.00 0.00 0.00 45 1017.6
20260504000001 13 0 0.0 0.0 0.00 0.00 0.00 45 1017.9
20260503235900 13 0 0.0 0.0 0.00 0.00 0.00 46 1017.8
20260503235800 13 0 0.0 0.0 0.00 0.00 0.00 45 1017.7
20260503235700 13 0 0.0 0.0 0.00 0.00 0.00 45 1017.8
20260503235600 13 0 0.0 0.0 0.00 0.00 0.00 46 1017.6
20260503235500 13 0 0.0 0.0 0.00 0.00 0.00 46 1017.7
20260503235400 13 0 0.0 0.0 0.00 0.00 0.00 43 1017.7
20260503235300 13 0 0.0 0.0 0.00 0.00 0.00 42 1017.7
20260503235200 13 0 0.0 0.0 0.00 0.00 0.00 42 1017.7
20260503235100 13 0 0.0 0.0 0.00 0.00 0.00 42 1017.7
20260503234959 13 0 0.0 0.0 0.00 0.00 0.00 42 1017.6
20260503234900 13 0 0.0 0.0 0.00 0.00 0.00 41 1017.7
20260503234800 13 0 0.0 0.0 0.00 0.00 0.00 42 1017.7
20260503234659 13 0 0.0 0.0 0.00 0.00 0.00 42 1017.7
20260503234600 13 0 0.0 0.0 0.00 0.00 0.00 42 1017.7
20260503234459 13 0 0.0 0.0 0.00 0.00 0.00 42 1017.7
20260503234400 13 0 0.0 0.0 0.00 0.00 0.00 41 1017.6
20260503234300 14 0 0.0 0.0 0.00 0.00 0.00 41 1017.7
20260503234159 14 0 0.0 0.0 0.00 0.00 0.00 41 1017.5
20260503234100 14 0 0.0 0.0 0.00 0.00 0.00 40 1017.7
20260503233959 14 0 0.0 0.0 0.00 0.00 0.00 40 1017.6
20260503233900 14 0 0.0 0.0 0.00 0.00 0.00 41 1017.4
20260503233800 14 0 0.0 0.0 0.00 0.00 0.00 40 1017.6
20260503233659 14 0 0.0 0.0 0.00 0.00 0.00 40 1017.4
20260503233600 14 0 0.0 0.0 0.00 0.00 0.00 39 1017.6
20260503233459 14 0 0.0 0.0 0.00 0.00 0.00 39 1017.5
20260503233359 14 0 0.0 0.0 0.00 0.00 0.00 38 1017.6
20260503233300 14 0 0.0 0.0 0.00 0.00 0.00 38 1017.5
20260503233159 14 0 0.0 0.0 0.00 0.00 0.00 38 1017.4
20260503233059 14 0 0.0 0.0 0.00 0.00 0.00 40 1017.5
20260503232959 15 0 0.0 0.0 0.00 0.00 0.00 39 1017.5
20260503232859 15 0 0.0 0.0 0.00 0.00 0.00 40 1017.5
20260503232759 15 0 0.0 0.0 0.00 0.00 0.00 41 1017.5
20260503232659 15 0 0.0 0.0 0.00 0.00 0.00 40 1017.5
20260503232559 15 0 0.0 0.0 0.00 0.00 0.00 39 1017.4
20260503232459 15 0 0.0 0.0 0.00 0.00 0.00 41 1017.5
20260503232359 15 0 0.0 0.0 0.00 0.00 0.00 40 1017.2
20260503232259 15 0 0.0 0.0 0.00 0.00 0.00 41 1017.5
20260503232159 15 0 0.0 0.0 0.00 0.00 0.00 41 1017.5
20260503232059 15 0 0.0 0.0 0.00 0.00 0.00 39 1017.4
20260503231958 15 0 0.0 0.0 0.00 0.00 0.00 40 1017.3
20260503231859 15 0 0.0 0.0 0.00 0.00 0.00 39 1017.3
20260503231759 15 0 0.0 0.0 0.00 0.00 0.00 42 1017.3
20260503231659 15 0 0.0 0.0 0.00 0.00 0.00 40 1017.3
20260503231559 15 0 0.0 0.0 0.00 0.00 0.00 41 1017.4
20260503231458 15 0 0.0 0.0 0.00 0.00 0.00 40 1017.3
20260503231359 15 0 0.0 0.0 0.00 0.00 0.00 38 1017.2
20260503231258 15 0 0.0 0.0 0.00 0.00 0.00 40 1017.3
20260503231158 15 0 0.0 0.0 0.00 0.00 0.00 41 1017.3
20260503231059 15 0 0.0 0.0 0.00 0.00 0.00 39 1017.1
20260503230958 15 0 0.0 0.0 0.00 0.00 0.00 39 1017.5
20260503230858 15 0 0.0 0.0 0.00 0.00 0.00 38 1017.4
20260503230759 15 0 0.0 0.0 0.00 0.00 0.00 38 1017.2
20260503230658 15 0 0.0 0.0 0.00 0.00 0.00 35 1017.2
20260503230558 15 0 0.0 0.0 0.00 0.00 0.00 36 1017.4
20260503230458 15 0 0.0 0.0 0.00 0.00 0.00 36 1017.3
20260503230358 15 0 0.0 0.0 0.00 0.00 0.00 38 1017.4
20260503230259 15 0 0.0 0.0 0.00 0.00 0.00 40 1017.4
20260503230158 15 0 0.0 0.0 0.00 0.00 0.00 41 1017.2
20260503230058 15 0 0.0 0.0 0.00 0.00 0.00 38 1017.3
20260503225959 15 0 0.0 0.0 0.00 0.00 0.00 37 1017.4
20260503225858 15 0 0.0 0.0 0.00 0.00 0.00 38 1017.4
20260503225758 15 0 0.0 0.0 0.00 0.00 0.00 40 1017.3
20260503225659 15 0 0.0 0.0 0.00 0.00 0.00 37 1017.3
20260503225558 15 0 0.0 0.0 0.00 0.00 0.00 40 1017.4
20260503225458 15 0 0.0 0.0 0.00 0.00 0.00 41 1017.4
20260503225358 15 0 0.0 0.0 0.00 0.00 0.00 39 1017.3
20260503225258 15 0 0.0 0.0 0.00 0.00 0.00 40 1017.4
20260503225158 15 0 0.0 0.0 0.00 0.00 0.00 38 1017.4
20260503225058 15 0 0.0 0.0 0.00 0.00 0.00 39 1017.3
20260503224958 15 0 0.0 0.0 0.00 0.00 0.00 34 1017.4
20260503224858 15 0 0.0 0.0 0.00 0.00 0.00 35 1017.5
20260503224757 15 0 0.0 0.0 0.00 0.00 0.00 37 1017.4
20260503224658 15 0 0.0 0.0 0.00 0.00 0.00 38 1017.3
20260503224558 15 0 0.0 0.0 0.00 0.00 0.00 38 1017.3
20260503224457 15 0 0.0 0.0 0.00 0.00 0.00 38 1017.3
20260503224358 15 0 0.0 0.0 0.00 0.00 0.00 38 1017.4
20260503224258 15 0 0.0 0.0 0.00 0.00 0.00 37 1017.5
20260503224157 15 0 0.0 0.0 0.00 0.00 0.00 37 1017.5
20260503224058 15 0 0.0 0.0 0.00 0.00 0.00 37 1017.4
20260503223958 16 0 0.0 0.0 0.00 0.00 0.00 37 1017.4
20260503223857 16 0 0.0 0.0 0.00 0.00 0.00 39 1017.6
20260503223758 16 0 0.0 0.0 0.00 0.00 0.00 37 1017.4
20260503223658 16 0 0.0 0.0 0.00 0.00 0.00 38 1017.6
20260503223557 16 0 0.0 0.0 0.00 0.00 0.00 36 1017.4
20260503223458 16 0 0.0 0.0 0.00 0.00 0.00 36 1017.4
20260503223358 16 0 0.0 0.0 0.00 0.00 0.00 35 1017.6
20260503223257 16 0 0.0 0.0 0.00 0.00 0.00 34 1017.5
20260503223157 16 0 0.0 0.0 0.00 0.00 0.00 34 1017.5
20260503223058 16 0 0.0 0.0 0.00 0.00 0.00 36 1017.5
20260503222957 16 0 0.0 0.0 0.00 0.00 0.00 37 1017.3
20260503222857 16 0 0.0 0.0 0.00 0.00 0.00 39 1017.4
20260503222757 16 0 0.0 0.0 0.00 0.00 0.00 36 1017.5
20260503222657 16 0 0.0 0.0 0.00 0.00 0.00 32 1017.5
20260503222557 16 0 0.0 3.2 0.00 0.00 0.00 31 1017.6
20260503222457 16 0 0.0 3.2 0.00 0.00 0.00 31 1017.4
20260503222357 16 0 0.0 0.0 0.00 0.00 0.00 31 1017.4
20260503222257 16 0 0.0 0.0 0.00 0.00 0.00 34 1017.6
20260503222156 16 0 0.0 0.0 0.00 0.00 0.00 32 1017.6
20260503222057 16 0 0.0 0.0 0.00 0.00 0.00 33 1017.5
20260503221957 16 0 0.0 0.0 0.00 0.00 0.00 32 1017.5
20260503221857 16 0 0.0 0.0 0.00 0.00 0.00 32 1017.7
20260503221757 16 0 0.0 0.0 0.00 0.00 0.00 32 1017.5
20260503221656 16 0 0.0 0.0 0.00 0.00 0.00 32 1017.7
20260503221556 16 0 0.0 0.0 0.00 0.00 0.00 32 1017.5
20260503221457 16 0 0.0 3.2 0.00 0.00 0.00 32 1017.6
20260503221356 16 0 0.0 3.2 0.00 0.00 0.00 32 1017.5
20260503221256 16 50 3.2 4.8 0.00 0.00 0.00 31 1017.6
20260503221157 16 36 3.2 4.8 0.00 0.00 0.00 32 1017.5
20260503221056 16 0 0.0 0.0 0.00 0.00 0.00 33 1017.6
20260503220956 16 0 0.0 0.0 0.00 0.00 0.00 33 1017.5
20260503220857 16 0 0.0 1.6 0.00 0.00 0.00 32 1017.7
20260503220756 16 51 1.6 3.2 0.00 0.00 0.00 32 1017.5
20260503220656 16 48 1.6 3.2 0.00 0.00 0.00 31 1017.6
20260503220556 16 63 0.0 3.2 0.00 0.00 0.00 31 1017.6
20260503220456 16 61 3.2 6.4 0.00 0.00 0.00 33 1017.7
20260503220356 16 61 3.2 6.4 0.00 0.00 0.00 33 1017.5
20260503220256 16 24 0.0 1.6 0.00 0.00 0.00 35 1017.8
20260503220156 16 0 0.0 0.0 0.00 0.00 0.00 34 1017.7
20260503220056 16 0 0.0 0.0 0.00 0.00 0.00 32 1017.6
20260503215955 16 0 0.0 0.0 0.00 0.00 0.00 33 1017.6
20260503215856 16 0 0.0 3.2 0.00 0.00 0.00 33 1017.6
20260503215756 16 39 3.2 3.2 0.00 0.00 0.00 34 1017.6
20260503215656 16 0 0.0 3.2 0.00 0.00 0.00 33 1017.4
20260503215556 16 0 0.0 3.2 0.00 0.00 0.00 36 1017.7
20260503215456 16 0 0.0 3.2 0.00 0.00 0.00 38 1017.6
20260503215356 16 0 0.0 0.0 0.00 0.00 0.00 37 1017.5
20260503215255 16 0 0.0 0.0 0.00 0.00 0.00 38 1017.5
20260503215156 16 0 0.0 0.0 0.00 0.00 0.00 36 1017.6
20260503215056 16 0 0.0 0.0 0.00 0.00 0.00 36 1017.7
20260503214955 16 0 0.0 0.0 0.00 0.00 0.00 33 1017.5
20260503214856 16 0 0.0 0.0 0.00 0.00 0.00 32 1017.6
20260503214756 16 0 0.0 0.0 0.00 0.00 0.00 34 1017.8
20260503214655 16 0 0.0 0.0 0.00 0.00 0.00 31 1017.7
20260503214556 16 0 0.0 0.0 0.00 0.00 0.00 32 1017.6
20260503214456 16 0 0.0 0.0 0.00 0.00 0.00 34 1017.8
20260503214355 16 0 0.0 0.0 0.00 0.00 0.00 34 1017.5
20260503214255 16 0 0.0 4.8 0.00 0.00 0.00 33 1017.8
20260503214156 16 62 0.0 4.8 0.00 0.00 0.00 35 1017.8
20260503214055 16 0 0.0 3.2 0.00 0.00 0.00 35 1017.8
20260503213955 16 0 0.0 3.2 0.00 0.00 0.00 32 1017.8
20260503213856 16 54 1.6 1.6 0.00 0.00 0.00 33 1017.7
20260503213755 16 0 0.0 0.0 0.00 0.00 0.00 36 1017.7
20260503213655 16 0 0.0 0.0 0.00 0.00 0.00 34 1017.5
20260503213556 16 0 0.0 0.0 0.00 0.00 0.00 37 1018.0
20260503213455 16 0 0.0 0.0 0.00 0.00 0.00 35 1017.8
20260503213355 16 0 0.0 0.0 0.00 0.00 0.00 33 1017.7
20260503213255 16 0 0.0 0.0 0.00 0.00 0.00 33 1017.7
20260503213155 16 0 0.0 0.0 0.00 0.00 0.00 33 1017.8
20260503213055 16 0 0.0 0.0 0.00 0.00 0.00 36 1017.7
20260503212955 16 0 0.0 0.0 0.00 0.00 0.00 35 1017.9
20260503212855 16 0 0.0 0.0 0.00 0.00 0.00 33 1017.9
20260503212755 16 0 0.0 4.8 0.00 0.00 0.00 32 1017.8
20260503212655 16 36 3.2 4.8 0.00 0.00 0.00 36 1017.8
20260503212555 16 38 1.6 3.2 0.00 0.00 0.00 36 1017.8
20260503212455 16 60 1.6 3.2 0.00 0.00 0.00 34 1017.6
20260503212354 16 56 0.0 3.2 0.00 0.00 0.00 34 1017.8
20260503212255 15 51 1.6 3.2 0.00 0.00 0.00 35 1017.7
20260503212155 16 81 1.6 3.2 0.00 0.00 0.00 38 1017.7
20260503212054 16 0 0.0 0.0 0.00 0.00 0.00 35 1017.7
20260503211955 16 0 0.0 0.0 0.00 0.00 0.00 35 1017.9
20260503211855 16 0 0.0 0.0 0.00 0.00 0.00 35 1017.8
20260503211755 16 0 0.0 1.6 0.00 0.00 0.00 35 1017.8
20260503211655 16 0 0.0 3.2 0.00 0.00 0.00 34 1017.6
20260503211554 16 76 1.6 3.2 0.00 0.00 0.00 36 1017.7
20260503211454 16 0 0.0 0.0 0.00 0.00 0.00 33 1017.9
20260503211355 16 0 0.0 1.6 0.00 0.00 0.00 33 1017.8
20260503211255 16 0 0.0 3.2 0.00 0.00 0.00 34 1017.7
20260503211154 16 46 1.6 3.2 0.00 0.00 0.00 33 1018.0
20260503211055 16 0 0.0 0.0 0.00 0.00 0.00 35 1017.8
20260503210955 16 0 0.0 0.0 0.00 0.00 0.00 35 1017.8
20260503210854 16 0 0.0 0.0 0.00 0.00 0.00 33 1017.8
20260503210755 16 0 0.0 0.0 0.00 0.00 0.00 33 1017.7
20260503210654 16 0 0.0 1.6 0.00 0.00 0.00 35 1017.9
20260503210554 16 71 1.6 1.6 0.00 0.00 0.00 35 1017.7
20260503210455 16 0 0.0 0.0 0.00 0.00 0.00 34 1017.9
20260503210354 16 0 0.0 1.6 0.00 0.00 0.00 33 1017.9
20260503210254 16 77 1.6 3.2 0.00 0.00 0.00 36 1017.8
20260503210154 16 0 0.0 3.2 0.00 0.00 0.00 34 1017.8
20260503210054 16 0 0.0 3.2 0.00 0.00 0.00 33 1017.8
20260503205954 16 54 1.6 3.2 0.00 0.00 0.00 36 1017.8
20260503205854 16 0 0.0 0.0 0.00 0.00 0.00 38 1017.8
20260503205754 16 0 0.0 0.0 0.00 0.00 0.00 37 1017.9
20260503205654 16 0 0.0 3.2 0.00 0.00 0.00 35 1017.9
20260503205554 16 43 1.6 3.2 0.00 0.00 0.00 34 1018.0
20260503205454 16 43 3.2 3.2 0.00 0.00 0.00 35 1018.0
20260503205354 16 39 3.2 4.8 0.00 0.00 0.00 33 1017.9
20260503205254 16 46 3.2 4.8 0.00 0.00 0.00 34 1018.0
20260503205154 16 0 0.0 0.0 0.00 0.00 0.00 37 1018.0
20260503205053 16 0 0.0 3.2 0.00 0.00 0.00 35 1018.0
20260503204954 16 67 1.6 3.2 0.00 0.00 0.00 37 1017.9
20260503204854 16 0 0.0 0.0 0.00 0.00 0.00 36 1017.9
20260503204753 16 0 0.0 3.2 0.00 0.00 0.00 36 1018.0
20260503204653 16 0 0.0 0.0 0.00 0.00 0.00 37 1018.0
20260503204554 16 0 0.0 1.6 0.00 0.00 0.00 32 1017.8
20260503204453 16 0 0.0 4.8 0.00 0.00 0.00 33 1017.8
20260503204353 15 124 0.0 1.6 0.00 0.00 0.00 38 1018.0
20260503204254 15 0 0.0 0.0 0.00 0.00 0.00 36 1018.1
20260503204154 16 0 0.0 0.0 0.00 0.00 0.00 36 1017.9
20260503204053 16 0 0.0 1.6 0.00 0.00 0.00 38 1018.0
20260503203953 15 0 0.0 3.2 0.00 0.00 0.00 35 1018.0
20260503203854 15 59 0.0 3.2 0.00 0.00 0.00 36 1017.9
20260503203753 16 63 0.0 3.2 0.00 0.00 0.00 37 1018.1
20260503203653 16 0 0.0 1.6 0.00 0.00 0.00 36 1018.0
20260503203553 16 63 1.6 3.2 0.00 0.00 0.00 35 1017.9
20260503203453 16 0 0.0 4.8 0.00 0.00 0.00 34 1018.0
20260503203353 16 18 3.2 4.8 0.00 0.00 0.00 34 1018.1
20260503203253 16 60 1.6 6.4 0.00 0.00 0.00 36 1018.1
20260503203152 16 36 0.0 4.8 0.00 0.00 0.00 37 1018.1
20260503203053 16 57 3.2 4.8 0.00 0.00 0.00 37 1018.1
20260503202953 16 0 0.0 3.2 0.00 0.00 0.00 37 1018.1
20260503202852 16 53 1.6 4.8 0.00 0.00 0.00 34 1018.1
20260503202752 16 5 3.2 4.8 0.00 0.00 0.00 34 1018.0
20260503202653 16 0 0.0 3.2 0.00 0.00 0.00 34 1018.0
20260503202553 16 79 0.0 1.6 0.00 0.00 0.00 35 1018.1
20260503202452 16 0 0.0 0.0 0.00 0.00 0.00 36 1018.1
20260503202353 16 0 0.0 0.0 0.00 0.00 0.00 34 1018.1
20260503202253 16 0 0.0 1.6 0.00 0.00 0.00 35 1018.1
20260503202152 16 0 0.0 3.2 0.00 0.00 0.00 33 1018.0
20260503202052 16 0 0.0 1.6 0.00 0.00 0.00 37 1018.0
20260503201953 16 0 0.0 0.0 0.00 0.00 0.00 36 1018.1
20260503201852 15 0 0.0 0.0 0.00 0.00 0.00 35 1018.3
20260503201752 15 0 0.0 0.0 0.00 0.00 0.00 35 1018.2
20260503201652 15 0 0.0 0.0 0.00 0.00 0.00 35 1018.3
20260503201553 15 0 0.0 3.2 0.00 0.00 0.00 32 1018.1
20260503201452 15 105 3.2 3.2 0.00 0.00 0.00 32 1018.2
20260503201352 14 0 0.0 3.2 0.00 0.00 0.00 36 1018.1
20260503201252 15 67 1.6 3.2 0.00 0.00 0.00 35 1018.3
20260503201152 15 97 0.0 3.2 0.00 0.00 0.00 33 1018.2
20260503201052 15 125 0.0 3.2 0.00 0.00 0.00 36 1018.1
20260503200952 15 0 0.0 3.2 0.00 0.00 0.00 34 1018.4
20260503200851 15 0 0.0 0.0 0.00 0.00 0.00 39 1018.3
20260503200752 15 0 0.0 0.0 0.00 0.00 0.00 36 1018.2
20260503200652 15 0 0.0 1.6 0.00 0.00 0.00 36 1018.4
20260503200552 15 0 0.0 1.6 0.00 0.00 0.00 35 1018.2
20260503200452 15 0 0.0 0.0 0.00 0.00 0.00 38 1018.4
20260503200352 15 0 0.0 0.0 0.00 0.00 0.00 35 1018.2
20260503200252 15 0 0.0 0.0 0.00 0.00 0.00 34 1018.5
20260503200151 15 0 0.0 0.0 0.00 0.00 0.00 37 1018.4
20260503200052 15 0 0.0 0.0 0.00 0.00 0.00 35 1018.3
20260503195952 15 0 0.0 0.0 0.00 0.00 0.00 34 1018.3
20260503195851 15 0 0.0 0.0 0.00 0.00 0.00 36 1018.4
20260503195751 15 0 0.0 0.0 0.00 0.00 0.00 36 1018.4
20260503195652 15 0 0.0 3.2 0.00 0.00 0.00 37 1018.5
20260503195552 15 0 0.0 3.2 0.00 0.00 0.00 37 1018.6
20260503195451 15 40 0.0 1.6 0.00 0.00 0.00 34 1018.4
20260503195351 15 0 0.0 3.2 0.00 0.00 0.00 36 1018.7
20260503195252 15 74 1.6 3.2 0.00 0.00 0.00 34 1018.6
20260503195151 15 0 0.0 4.8 0.00 0.00 0.00 33 1018.5
20260503195051 15 351 3.2 4.8 0.00 0.00 0.00 36 1018.6
20260503194951 15 0 0.0 0.0 0.00 0.00 0.00 35 1018.5
20260503194851 15 0 0.0 6.4 0.00 0.00 0.00 34 1018.6
20260503194751 15 46 0.0 6.4 0.00 0.00 0.00 34 1018.5
20260503194651 15 56 0.0 3.2 0.00 0.00 0.00 36 1018.7
20260503194551 15 0 0.0 3.2 0.00 0.00 0.00 37 1018.7
20260503194451 15 60 1.6 3.2 0.00 0.00 0.00 37 1018.6
20260503194351 15 68 0.0 4.8 0.00 0.00 0.00 35 1018.6
20260503194251 15 47 3.2 3.2 0.00 0.00 0.00 37 1018.6
20260503194150 15 60 1.6 4.8 0.00 0.00 0.00 37 1018.8
20260503194051 15 18 4.8 4.8 0.00 0.00 0.00 35 1018.9
20260503193951 15 38 3.2 4.8 0.00 0.00 0.00 36 1018.8
20260503193851 15 54 0.0 4.8 0.00 0.00 0.00 34 1018.8
20260503193750 15 49 1.6 4.8 0.00 0.00 0.00 34 1018.9
20260503193651 15 0 0.0 3.2 0.00 0.00 0.00 33 1018.8
20260503193551 15 22 1.6 4.8 0.00 0.00 0.00 34 1018.9
20260503193450 15 51 1.6 6.4 0.00 0.00 0.00 34 1019.0
20260503193350 15 194 3.2 6.4 0.00 0.00 0.00 36 1018.8
20260503193251 15 0 0.0 6.4 0.00 0.00 0.00 34 1019.0
20260503193150 15 43 4.8 6.4 0.00 0.00 0.00 36 1018.8
20260503193050 15 64 1.6 4.8 0.00 0.00 0.00 37 1018.8
20260503192950 15 0 0.0 3.2 0.00 0.00 0.00 35 1018.8
20260503192851 15 43 1.6 3.2 0.00 0.00 0.00 36 1018.8
20260503192750 15 0 0.0 1.6 0.00 0.00 0.00 39 1018.8
20260503192650 15 63 1.6 1.6 0.00 0.00 0.00 37 1019.0
20260503192551 15 0 0.0 4.8 0.00 0.00 0.00 35 1019.0
20260503192450 15 53 1.6 4.8 0.00 0.00 0.00 36 1019.0
20260503192350 15 0 0.0 3.2 0.00 0.00 0.00 36 1019.0
20260503192250 15 0 0.0 3.2 0.00 0.00 0.00 37 1019.2
20260503192150 15 40 1.6 3.2 0.00 0.00 0.00 37 1019.0
20260503192050 15 55 3.2 3.2 0.00 0.00 0.00 35 1019.1
20260503191950 16 45 1.6 3.2 0.00 0.00 0.00 35 1018.8
20260503191850 16 0 0.0 0.0 0.00 0.00 0.00 36 1019.0
20260503191749 16 0 0.0 0.0 0.00 0.00 0.00 35 1019.0
20260503191650 16 0 0.0 3.2 0.00 0.00 0.00 36 1019.1
20260503191550 16 0 0.0 4.8 0.00 0.00 0.00 36 1019.1
20260503191449 15 18 4.8 4.8 0.00 0.00 0.00 37 1019.2
20260503191349 15 0 0.0 0.0 0.00 0.00 0.00 37 1019.2
20260503191250 14 0 0.0 0.0 0.00 0.00 0.00 36 1019.1
20260503191150 14 0 0.0 0.0 0.00 0.00 0.00 36 1019.1
20260503191049 15 0 0.0 1.6 0.00 0.00 0.00 34 1019.2
20260503190949 15 0 0.0 4.8 0.00 0.00 0.00 37 1019.1
20260503190850 15 26 3.2 4.8 0.00 0.00 0.00 37 1019.3
20260503190750 14 0 0.0 1.6 0.00 0.00 0.00 36 1019.0
20260503190649 14 0 0.0 0.0 0.00 0.00 0.00 36 1019.3
20260503190549 14 0 0.0 0.0 0.00 0.00 0.00 35 1019.2
20260503190449 14 0 0.0 0.0 0.00 0.00 0.00 36 1019.3
20260503190349 14 0 0.0 0.0 0.00 0.00 0.00 35 1019.3
20260503190249 14 0 0.0 0.0 0.00 0.00 0.00 35 1019.3
20260503190149 14 0 0.0 3.2 0.00 0.00 0.00 35 1019.0
20260503190049 14 0 0.0 3.2 0.00 0.00 0.00 39 1019.2
20260503185949 14 54 0.0 1.6 0.00 0.00 0.00 36 1019.4
20260503185849 14 0 0.0 1.6 0.00 0.00 0.00 35 1019.4
20260503185749 14 63 0.0 1.6 0.00 0.00 0.00 35 1019.2
20260503185648 14 0 0.0 0.0 0.00 0.00 0.00 34 1019.2
20260503185549 15 0 0.0 3.2 0.00 0.00 0.00 33 1019.4
20260503185449 15 112 0.0 3.2 0.00 0.00 0.00 33 1019.4
20260503185349 15 0 0.0 0.0 0.00 0.00 0.00 34 1019.3
20260503185248 15 0 0.0 1.6 0.00 0.00 0.00 33 1019.3
20260503185149 15 0 0.0 3.2 0.00 0.00 0.00 34 1019.5
20260503185049 15 0 0.0 3.2 0.00 0.00 0.00 38 1019.3
20260503184948 15 0 0.0 0.0 0.00 0.00 0.00 36 1019.4
20260503184848 15 0 0.0 1.6 0.00 0.00 0.00 35 1019.4
20260503184748 15 52 0.0 3.2 0.00 0.00 0.00 37 1019.3
20260503184649 14 0 0.0 0.0 0.00 0.00 0.00 35 1019.6
20260503184548 14 0 0.0 0.0 0.00 0.00 0.00 35 1019.5
20260503184448 14 0 0.0 0.0 0.00 0.00 0.00 39 1019.4
20260503184348 14 0 0.0 0.0 0.00 0.00 0.00 38 1019.6
20260503184249 14 0 0.0 1.6 0.00 0.00 0.00 35 1019.7
20260503184148 14 20 0.0 1.6 0.00 0.00 0.00 34 1019.5
20260503184048 14 0 0.0 1.6 0.00 0.00 0.00 36 1019.5
20260503183948 15 35 1.6 1.6 0.00 0.00 0.00 36 1019.6
20260503183847 15 0 0.0 4.8 0.00 0.00 0.00 37 1019.5
20260503183748 15 38 1.6 4.8 0.00 0.00 0.00 40 1019.4
20260503183648 15 11 1.6 4.8 0.00 0.00 0.00 36 1019.5
20260503183548 15 43 4.8 4.8 0.00 0.00 0.00 35 1019.5
20260503183447 15 44 3.2 6.4 0.00 0.00 0.00 34 1019.5
20260503183347 15 46 1.6 3.2 0.00 0.00 0.00 39 1019.5
20260503183248 15 0 0.0 0.0 0.00 0.00 0.00 35 1019.6
20260503183147 15 0 0.0 3.2 0.00 0.00 0.00 36 1019.7
20260503183047 15 0 0.0 0.0 0.00 0.00 0.00 32 1019.7
20260503182947 15 0 0.0 3.2 0.00 0.00 0.00 39 1019.6
20260503182847 15 37 3.2 4.8 0.00 0.00 0.00 33 1019.4
20260503182747 15 16 3.2 4.8 0.00 0.00 0.00 32 1019.7
20260503182647 15 0 0.0 3.2 0.00 0.00 0.00 34 1019.6
20260503182547 15 56 3.2 4.8 0.00 0.00 0.00 35 1019.7
20260503182447 14 0 0.0 0.0 0.00 0.00 0.00 36 1019.6
20260503182346 14 0 0.0 0.0 0.00 0.00 0.00 34 1019.8
20260503182247 14 0 0.0 0.0 0.00 0.00 0.00 36 1019.8
20260503182147 14 0 0.0 0.0 0.00 0.00 0.00 38 1019.7
20260503182046 14 0 0.0 0.0 0.00 0.00 0.00 35 1019.8
20260503181946 14 0 0.0 4.8 0.00 0.00 0.00 38 1019.6
20260503181846 14 0 0.0 6.4 0.00 0.00 0.00 36 1019.9
20260503181747 14 39 3.2 4.8 0.00 0.00 0.00 35 1019.9
20260503181646 14 59 1.6 3.2 0.00 0.00 0.00 36 1019.9
20260503181546 14 0 0.0 0.0 0.00 0.00 0.00 34 1019.9
20260503181446 14 0 0.0 3.2 0.00 0.00 0.00 35 1019.6
20260503181346 14 71 1.6 4.8 0.00 0.00 0.00 34 1019.9
20260503181245 14 3 4.8 4.8 0.00 0.00 0.00 34 1020.0
20260503181145 14 17 1.6 6.4 0.00 0.00 0.00 34 1019.9
20260503181046 14 359 4.8 6.4 0.00 0.00 0.00 35 1020.1
20260503180945 15 311 3.2 6.4 0.00 0.00 0.00 35 1019.9
20260503180845 13 0 0.0 0.0 0.00 0.00 0.00 37 1019.9
20260503180745 13 0 0.0 0.0 0.00 0.00 0.00 34 1019.9
20260503180645 13 0 0.0 1.6 0.00 0.00 0.00 40 1019.9
20260503180545 14 0 0.0 3.2 0.00 0.00 0.00 35 1020.1
20260503180445 14 38 1.6 3.2 0.00 0.00 0.00 33 1019.8
20260503180345 14 0 0.0 0.0 0.00 0.00 0.00 34 1020.0
20260503180245 14 0 0.0 1.6 0.00 0.00 0.00 34 1020.0
20260503180144 13 30 1.6 1.6 0.00 0.00 0.00 35 1019.8
20260503180044 14 0 0.0 4.8 0.00 0.00 0.00 41 1019.9
20260503175944 14 42 3.2 4.8 0.00 0.00 0.00 34 1020.0
20260503175844 13 13 3.2 6.4 0.00 0.00 0.00 37 1020.2
20260503175744 13 351 3.2 6.4 0.00 0.00 0.00 40 1020.0
20260503175644 13 34 1.6 3.2 0.00 0.00 0.00 36 1020.2
20260503175544 13 29 0.0 3.2 0.00 0.00 0.00 34 1020.0
20260503175444 13 134 1.6 1.6 0.00 0.00 0.00 37 1020.2
20260503175343 13 50 0.0 3.2 0.00 0.00 0.00 36 1020.0
20260503175244 13 0 0.0 3.2 0.00 0.00 0.00 41 1019.9
20260503175144 14 9 1.6 6.4 0.00 0.00 0.00 35 1020.2
20260503175043 14 128 4.8 6.4 0.00 0.00 0.00 33 1019.8
20260503174943 14 28 0.0 4.8 0.00 0.00 0.00 36 1020.3
20260503174843 13 0 0.0 3.2 0.00 0.00 0.00 39 1020.1
20260503174743 13 94 1.6 3.2 0.00 0.00 0.00 36 1020.1
20260503174642 13 0 0.0 4.8 0.00 0.00 0.00 38 1020.1
20260503174543 13 100 1.6 3.2 0.00 0.00 0.00 40 1020.2
20260503174443 13 0 0.0 0.0 0.00 0.00 0.00 37 1020.3
20260503174343 13 0 0.0 3.2 0.00 0.00 0.00 39 1020.2
20260503174242 13 25 3.2 3.2 0.00 0.00 0.00 35 1020.1
20260503174142 13 29 1.6 4.8 0.00 0.00 0.00 38 1020.2
20260503174042 13 5 1.6 4.8 0.00 0.00 0.00 38 1020.2
20260503173943 13 0 0.0 6.4 0.00 0.00 0.00 38 1020.0
20260503173842 13 52 1.6 6.4 0.00 0.00 0.00 41 1020.4
20260503173742 13 57 0.0 4.8 0.00 0.00 0.00 37 1020.1
20260503173642 13 41 0.0 1.6 0.00 0.00 0.00 37 1020.2
20260503173542 13 0 0.0 0.0 0.00 0.00 0.00 36 1020.2
20260503173441 13 0 0.0 0.0 0.00 0.00 0.00 39 1020.4
20260503173341 12 0 0.0 0.0 0.00 0.00 0.00 39 1020.2
20260503173242 13 0 0.0 0.0 0.00 0.00 0.00 41 1020.2
20260503173142 12 0 0.0 3.2 0.00 0.00 0.00 35 1020.1
20260503173041 13 15 3.2 3.2 0.00 0.00 0.00 36 1020.3
20260503172941 13 0 0.0 1.6 0.00 0.00 0.00 36 1020.4
20260503172841 13 0 0.0 1.6 0.00 0.00 0.00 39 1020.4
20260503172742 13 0 0.0 1.6 0.00 0.00 0.00 37 1020.4
20260503172641 13 0 0.0 4.8 0.00 0.00 0.00 42 1020.5
20260503172541 12 35 3.2 4.8 0.00 0.00 0.00 40 1020.5
20260503172441 12 0 0.0 1.6 0.00 0.00 0.00 39 1020.4
20260503172340 12 63 1.6 1.6 0.00 0.00 0.00 38 1020.5
20260503172241 12 27 0.0 1.6 0.00 0.00 0.00 43 1020.6
20260503172141 13 29 1.6 4.8 0.00 0.00 0.00 36 1020.5
20260503172041 13 353 0.0 3.2 0.00 0.00 0.00 40 1020.4
20260503171940 12 0 0.0 0.0 0.00 0.00 0.00 42 1020.5
20260503171841 13 0 0.0 0.0 0.00 0.00 0.00 39 1020.5
20260503171741 13 0 0.0 3.2 0.00 0.00 0.00 35 1020.4
20260503171641 13 72 1.6 4.8 0.00 0.00 0.00 35 1020.3
20260503171540 13 102 4.8 4.8 0.00 0.00 0.00 41 1020.4
20260503171440 12 111 0.0 1.6 0.00 0.00 0.00 40 1020.5
20260503171341 12 0 0.0 0.0 0.00 0.00 0.00 44 1020.5
20260503171241 13 0 0.0 4.8 0.00 0.00 0.00 40 1020.5
20260503171140 13 34 3.2 4.8 0.00 0.00 0.00 37 1020.7
20260503171040 12 18 4.8 4.8 0.00 0.00 0.00 40 1020.6
20260503170941 12 24 3.2 3.2 0.00 0.00 0.00 40 1020.4
20260503170841 12 74 1.6 3.2 0.00 0.00 0.00 39 1020.5
20260503170740 12 0 0.0 0.0 0.00 0.00 0.00 36 1020.3
20260503170640 12 0 0.0 0.0 0.00 0.00 0.00 36 1020.6
20260503170540 12 0 0.0 0.0 0.00 0.00 0.00 37 1020.6
20260503170441 12 0 0.0 0.0 0.00 0.00 0.00 43 1020.6
20260503170340 13 0 0.0 0.0 0.00 0.00 0.00 40 1020.5
20260503170240 13 0 0.0 3.2 0.00 0.00 0.00 42 1020.4
20260503170140 12 29 3.2 3.2 0.00 0.00 0.00 39 1020.6
20260503160133 12 0 0.0 6.4 0.00 0.00 0.00 39 1021.2
20260503150927 10 0 0.0 1.6 0.00 0.00 0.00 46 1021.6
20260503150826 10 0 0.0 3.2 0.00 0.00 0.00 47 1021.4
20260503150727 10 41 3.2 4.8 0.00 0.00 0.00 45 1021.5
20260503150627 10 30 3.2 4.8 0.00 0.00 0.00 44 1021.5
20260503150527 10 0 0.0 1.6 0.00 0.00 0.00 42 1021.6
20260503150426 10 0 0.0 3.2 0.00 0.00 0.00 42 1021.4
20260503150326 10 120 1.6 3.2 0.00 0.00 0.00 43 1021.4
20260503150226 10 92 1.6 3.2 0.00 0.00 0.00 43 1021.5
20260503150127 11 0 0.0 1.6 0.00 0.00 0.00 45 1021.4
20260503140221 9 0 0.0 3.2 0.00 0.00 0.00 46 1021.5
20260503140120 9 0 0.0 3.2 0.00 0.00 0.00 46 1021.4
20260503131359 8 0 0.0 3.2 0.00 0.00 0.00 47 1021.2
20260503131259 8 55 1.6 3.2 0.00 0.00 0.00 48 1021.2
20260503131159 8 33 1.6 4.8 0.00 0.00 0.00 48 1021.1
20260503131059 8 30 1.6 4.8 0.00 0.00 0.00 49 1021.2
20260503130959 8 0 0.0 3.2 0.00 0.00 0.00 50 1021.5
20260503130859 8 0 0.0 3.2 0.00 0.00 0.00 50 1021.2
20260503130759 8 0 0.0 1.6 0.00 0.00 0.00 48 1021.3
20260503130659 8 0 0.0 4.8 0.00 0.00 0.00 50 1021.2
20260503130559 8 2 0.0 3.2 0.00 0.00 0.00 50 1021.3
20260503130458 8 0 0.0 4.8 0.00 0.00 0.00 49 1021.2
20260503130358 8 54 1.6 4.8 0.00 0.00 0.00 49 1021.3
20260503130258 8 0 0.0 4.8 0.00 0.00 0.00 49 1021.3
20260503130159 8 55 1.6 6.4 0.00 0.00 0.00 53 1021.2